This is the latest recevied weather packets stored in our database for station/object BMCB-10. If no packets are shown the sender has not sent any weather packets the latest 10 day(s).
| Time | Temp. | Humidity | Pressure | Rain* | Wind** | Luminosity | Snow |
|---|---|---|---|---|---|---|---|
| 1777887014 | 15.56° C | 86% | 1013.9 hPa | 0 mm | - | 152 W/m² | - |
| 1777886415 | 15.56° C | 86% | 1013.9 hPa | 0 mm | - | 158 W/m² | - |
| 1777884015 | 15.56° C | 86% | 1013.7 hPa | 0 mm | - | 232 W/m² | - |
| 1777881622 | 15° C | 88% | 1013.6 hPa | 0 mm | - | 240 W/m² | - |
| 1777881016 | 15° C | 89% | 1013.5 hPa | 0 mm | - | 244 W/m² | - |
| 1777880415 | 14.44° C | 93% | 1013.4 hPa | 0 mm | - | 258 W/m² | - |
| 1777879215 | 12.78° C | 10% | 1013.4 hPa | 0 mm | - | - | - |
| 1777876216 | 10° C | 10% | 1013.3 hPa | 0.25 mm | - | - | - |
| 1777867814 | 6.67° C | 10% | 1012.5 hPa | 0 mm | - | - | - |
| 1777866015 | 7.22° C | 10% | 1012.6 hPa | 0 mm | - | - | - |
| 1777847421 | 9.44° C | 10% | 1012.8 hPa | 0 mm | - | - | - |
| 1777843821 | 10.56° C | 10% | 1012.9 hPa | 0 mm | - | - | - |
| 1777839031 | 13.89° C | 97% | 1012.8 hPa | 0 mm | - | 0 W/m² | - |
| 1777828842 | 15° C | 97% | 1011.8 hPa | 0 mm | - | 30 W/m² | - |
| 1777827620 | 15.56° C | 92% | 1011.8 hPa | 0 mm | - | 28 W/m² | - |
| 1777813220 | 13.89° C | 99% | 1012.7 hPa | 1.52 mm | - | 132 W/m² | - |
| 1777812622 | 13.33° C | 99% | 1012.7 hPa | 1.27 mm | - | 94 W/m² | - |
| 1777800020 | 16.11° C | 70% | 1011.8 hPa | 0.25 mm | - | 238 W/m² | - |
| 1777797621 | 14.44° C | 93% | 1011.8 hPa | 0 mm | - | 220 W/m² | - |
| 1777795819 | 13.33° C | 10% | 1011.8 hPa | 0 mm | - | - | - |
| 1777793421 | 13.33° C | 10% | 1011.8 hPa | 0 mm | - | - | - |
| 1777786827 | 10.56° C | 10% | 1011.7 hPa | 0 mm | - | - | - |
| 1777775421 | 10.56° C | 10% | 1012.1 hPa | 0 mm | - | - | - |
| 1777774821 | 11.11° C | 10% | 1012.3 hPa | 0 mm | - | - | - |
| 1777772420 | 11.11° C | 10% | 1012.5 hPa | 0 mm | - | - | - |
* Rain latest hour (hover to see other rain measurements)
** Current wind speed in m/s (hover to see current wind gust speed)